Regional Weather Roundup
Issued by NWS Tiyan, Guam

Home | Current Version | Previous Version | Text Only | Print | Product List | Glossary On
Versions: 1 2 3 4 5 6 7 8 9 10 11 12 13 14 15 16 17 18 19 20 21 22 23 24 25 26 27 28 29 30 31 32 33 34 35 36 37 38 39 40 41 42 43 44 45 46 47 48 49 50
000
ASGM40 PGUM 220412
RWRGUM
WEATHER ROUNDUP FOR THE MARIANAS
NATIONAL WEATHER SERVICE TIYAN GU
200 PM CHST MON SEP 22 2014

GUZ001>004-220500-
MARIANA ISLANDS-

CITY           SKY/WX    TMP DP  RH WIND       PRES   REMARKS
GUAM AIRPORT   MOSUNNY   88  79  74 N9        29.73F HX 102
ANDERSEN AFB   MOSUNNY   84  79  84 N8        29.74F HX  96
ROTA AIRPORT   MOSUNNY   86  79  79 NE10      29.73F HX  99
TINIAN AP      MOSUNNY   88  79  74 NE13      29.70F HX 102
SAIPAN AP      SUNNY     88  79  74 NE13      29.71F HX 102

$$



USA.gov is the U.S. government's official web portal to all federal, state and local government web resources and services.